Terminal Aerodrome Forecast
Issued by NWS Cheyenne, WY

Home | Current Version | Previous Version | Text Only | Print | Product List | Glossary On
Versions: 1 2 3 4 5 6 7 8 9 10 11 12 13 14 15 16 17 18 19 20 21 22 23 24 25 26 27 28 29 30 31 32 33 34 35 36 37 38 39
000
FTUS45 KCYS 251100
TAFCYS
TAF
KCYS 251120Z 2512/2612 28013G22KT P6SM SCT100
     FM251500 36010G20KT P6SM SCT100
     FM251800 20013G24KT P6SM VCTS BKN080CB
     FM260200 25011KT P6SM SCT080=

USA.gov is the U.S. government's official web portal to all federal, state and local government web resources and services.